Location: S�tio Afonso Gruber
(26.1760°S, 49.5250°W)
Time: 23:18:56
(UTC+00:00)

Cosmos 1844 Rocket - Visible Passes

Search period start: 01 October 2020 00:00
Search period end: 11 October 2020 00:00
Orbit: 824 x 845 km, 71.0° (Epoch: 01 October)

Date Brightness Start Highest point End Pass type
(mag) Time Alt. Az. Time Alt. Az. Time Alt. Az.
01 Oct 2.8 08:14:22 10° NNW 08:20:02 86° ENE 08:25:45 10° SSE visible
02 Oct 2.9 07:57:11 10° NNW 08:02:50 77° ENE 08:08:31 10° SSE visible
03 Oct 3.0 07:40:01 10° N 07:45:37 69° ENE 07:51:17 10° SSE visible
04 Oct 3.2 07:22:51 10° N 07:28:25 61° ENE 07:34:01 10° SSE visible
05 Oct 3.3 07:06:40 15° N 07:11:12 54° ENE 07:16:45 10° SSE visible
06 Oct 3.5 06:51:01 25° NNE 06:54:01 48° ENE 06:59:28 10° SSE visible
07 Oct 3.7 06:35:10 34° NE 06:36:49 43° ENE 06:42:09 10° SE visible
07 Oct 4.1 08:16:56 10° WNW 08:20:48 19° WSW 08:24:41 10° SSW visible
08 Oct 3.8 06:19:09 37° ENE 06:19:38 38° ENE 06:24:50 10° SE visible
08 Oct 4.0 08:00:52 15° W 08:03:32 21° WSW 08:07:42 10° SSW visible
09 Oct 4.1 06:03:01 33° E 06:03:01 33° E 06:07:30 10° SE visible
09 Oct 3.9 07:44:43 21° W 07:46:16 23° WSW 07:50:42 10° SSW visible
10 Oct 4.5 05:46:46 26° ESE 05:46:46 26° ESE 05:50:09 10° SE visible
10 Oct 3.7 07:28:28 25° WSW 07:29:00 25° WSW 07:33:40 10° S visible
